Temp
23 23 23 23 24 24 24 24 24 24 24 25 24 25 25 25 25 25 25 25 25 25 25 25 25 25 25 25 25 25 25 25 25 25 25 25 25 25 25 25 24 24 24 24 24 24 24 24 24 24 24 24 24 24 24 24 24 24 24 24 24 24 23 22 21 22 23 24 24 25 24 24 25 25 25 25 25 25 25 25 25 25 25 25 25
23 23 23 23 23 23 24 24 24 24 24 24 24 25 25 25 25 25 25 25 25 25 25 25 25 25 25 25 25 25 25 25 26 25 25 26 25 25 25 25 25 24 24 24 24 24 24 24 24 24 24 24 24 24 24 24 24 24 24 24 24 24 23 22 22 22 22 24 24 24 24 24 24 25 25 25 25 25 25 25 25 25 25 25 25
23 23 23 23 23 23 23 24 24 24 24 24 24 25 25 25 25 25 25 25 25 25 25 25 25 25 25 25 25 25 25 26 26 26 26 26 25 25 25 25 25 25 25 25 25 25 25 25 25 25 24 24 24 24 24 24 24 24 24 24 24 24 23 22 22 22 22 23 23 24 24 24 24 24 24 24 24 25 25 25 25 25 25 25 25
23 23 23 23 23 23 23 23 23 24 24 24 25 25 25 25 25 25 25 25 25 25 25 25 25 25 25 25 25 25 25 26 26 25 25 25 25 25 25 25 25 25 25 25 25 25 25 25 25 25 24 24 24 24 24 24 24 24 24 24 24 24 23 22 22 22 21 22 23 23 24 24 24 24 24 24 24 24 24 25 25 25 25 25 25
23 23 23 23 23 23 23 23 23 23 24 24 24 24 25 25 24 24 24 25 25 25 25 25 25 25 25 25 25 25 26 26 26 26 26 25 25 25 25 25 25 25 25 25 25 25 24 24 24 24 24 24 24 24 24 24 24 24 24 24 24 23 23 23 22 22 21 21 22 23 23 23 24 24 24 24 24 24 24 24 25 25 25 25 25
23 23 23 23 22 22 23 23 23 23 23 24 24 24 24 24 24 24 24 25 25 25 25 25 25 25 25 25 25 25 25 25 25 26 26 25 25 25 25 25 25 25 25 25 25 25 25 24 24 24 24 24 24 24 24 24 24 24 24 24 23 23 23 22 22 22 21 21 21 22 23 23 23 23 23 23 23 23 24 24 24 24 24 25 25
22 23 23 23 22 22 22 23 23 23 23 23 24 24 24 24 24 24 24 24 24 24 25 25 25 25 25 25 25 25 25 25 25 25 25 25 25 25 25 25 24 24 25 25 25 25 25 25 24 24 24 24 24 24 23 23 23 23 23 23 23 23 22 22 22 21 21 21 21 22 22 23 23 23 23 23 23 23 23 23 23 24 24 24 24
22 22 22 23 23 22 22 23 23 23 23 23 23 24 24 24 24 24 24 24 24 24 24 24 25 25 25 25 25 25 25 25 26 26 26 26 25 25 25 25 25 24 24 24 25 25 25 24 24 24 24 24 24 23 23 22 22 23 23 23 22 22 22 21 21 21 21 21 21 22 22 22 22 23 23 23 23 23 22 22 22 23 23 23 24
21 21 21 22 23 23 23 22 23 23 23 23 23 23 24 24 24 24 24 24 24 24 24 24 25 25 25 25 25 25 25 26 26 26 26 26 25 25 25 25 25 25 24 24 24 24 24 24 24 24 24 24 23 23 23 22 22 22 22 22 21 21 21 20 20 20 20 20 21 21 21 21 22 22 22 22 22 22 21 21 22 22 22 23 23
21 21 21 22 23 23 22 22 23 23 23 23 23 23 23 24 24 24 24 24 24 24 24 25 25 25 25 25 25 25 25 26 26 26 26 26 26 25 25 25 25 24 24 24 24 23 23 23 23 23 23 23 23 23 23 22 22 21 21 21 21 21 20 20 20 20 20 20 21 21 21 21 22 21 21 21 21 21 21 21 22 22 22 22 23
20 21 21 22 22 22 22 22 22 23 23 23 23 23 23 23 24 24 24 24 24 24 24 25 25 25 25 25 25 25 25 25 26 26 26 26 25 25 24 24 24 24 24 24 23 23 23 23 22 22 22 22 23 22 22 22 22 22 21 21 21 21 20 20 20 20 20 20 20 21 21 21 21 21 21 21 21 21 21 21 21 21 21 21 22
20 20 21 21 21 21 22 22 22 22 23 23 23 23 23 23 23 23 23 24 24 24 24 25 25 25 25 25 25 25 25 25 25 25 25 25 25 24 23 23 23 23 23 23 22 22 23 23 23 23 22 22 22 22 22 21 21 21 21 21 21 21 20 20 19 20 20 20 20 21 21 21 21 21 21 21 21 21 21 21 21 20 20 20 21
20 20 20 20 20 21 21 22 22 22 22 22 22 22 22 23 23 23 23 23 24 24 25 25 25 24 24 24 25 24 24 24 24 24 24 24 24 24 24 23 23 22 22 22 22 22 22 22 23 23 22 21 21 21 21 21 21 21 21 21 21 21 20 20 20 20 20 20 20 21 21 21 21 21 21 21 21 21 21 20 20 20 20 20 20
20 20 20 20 20 20 20 20 21 21 21 21 21 21 21 22 22 22 23 23 24 24 24 24 24 24 24 24 24 23 23 23 23 23 23 23 23 23 23 23 23 22 21 21 22 21 21 21 22 21 21 21 21 20 21 21 20 20 20 20 21 21 20 20 20 20 20 20 20 20 20 20 20 20 20 20 20 20 20 20 20 20 20 20 20
19 20 20 19 19 19 20 20 20 19 20 20 20 21 22 22 22 22 22 22 23 23 22 22 22 22 22 22 23 23 23 23 23 23 23 23 23 23 23 22 22 21 21 21 21 21 20 20 20 20 20 21 21 20 20 20 20 20 20 20 20 21 21 21 20 20 20 20 20 20 20 20 20 20 20 20 20 20 20 20 20 20 19 19 19
20 20 20 19 20 20 20 20 20 19 19 20 20 21 23 22 20 20 20 20 21 20 21 22 22 21 20 21 22 22 22 22 22 22 23 23 22 22 22 21 21 21 20 21 20 20 21 21 20 20 20 20 20 20 20 20 20 20 20 20 20 19 20 20 20 19 20 20 19 19 20 20 20 19 19 20 20 20 20 19 19 19 19 19 19
19 19 19 19 19 20 19 19 19 19 20 20 20 20 22 21 20 21 21 20 19 20 21 22 22 20 20 20 21 21 21 21 22 22 22 22 21 21 21 20 20 20 20 20 20 21 21 20 20 20 20 20 20 20 20 20 20 20 20 20 19 19 19 19 19 19 19 19 19 19 19 19 19 20 20 20 19 19 19 19 19 19 19 19 19
19 19 19 19 19 20 19 19 19 19 19 20 20 20 20 21 20 21 20 19 19 20 22 21 20 20 20 20 20 20 20 20 20 21 21 21 21 20 20 20 20 19 19 20 20 20 20 19 19 19 19 19 19 19 19 19 20 20 19 19 19 19 18 18 19 19 19 19 18 19 19 19 19 19 19 19 19 19 19 19 19 19 19 19 19
18 18 19 19 19 19 19 19 19 19 19 19 19 19 19 20 19 19 19 19 19 20 20 20 19 19 19 19 19 19 19 19 19 20 20 20 20 19 19 19 19 18 19 19 19 19 18 18 18 18 19 19 19 19 19 19 19 19 19 19 18 18 18 18 18 18 18 18 18 18 18 18 18 18 18 18 18 18 18 19 19 19 19 19 19
17 18 18 18 18 18 19 19 18 18 19 19 19 19 19 19 19 19 19 18 18 19 19 19 18 18 18 18 18 18 18 18 18 18 19 19 19 19 18 19 19 18 18 18 18 17 17 17 17 18 18 18 18 19 19 19 19 19 18 18 18 17 17 17 17 17 17 17 17 17 17 17 17 17 17 17 17 18 18 18 18 18 18 18 17
16 17 17 17 17 17 17 17 17 18 18 18 18 18 18 18 18 18 18 18 18 18 18 18 17 17 16 17 17 17 17 17 17 18 18 18 19 19 19 19 19 18 17 17 16 16 17 17 17 17 17 18 18 18 18 18 18 18 18 17 17 17 17 17 17 17 17 17 17 17 17 17 17 17 17 17 17 17 17 17 17 16 16 16 16
16 16 15 15 16 16 16 17 17 17 17 18 18 18 17 18 18 17 17 17 17 17 17 17 17 16 16 16 16 16 16 16 16 17 18 18 19 19 19 19 18 18 17 16 16 16 16 16 16 16 17 17 17 17 17 17 17 17 17 16 17 17 17 17 17 17 16 16 16 16 16 16 16 16 16 16 16 16 16 16 16 16 16 16 15
15 15 14 14 14 15 15 15 16 16 17 17 18 17 17 17 17 16 16 16 16 16 15 15 15 15 15 15 15 15 15 16 16 17 17 18 18 19 19 18 18 17 17 16 16 16 16 16 16 17 17 17 17 17 17 17 17 16 16 16 17 17 17 17 16 16 15 15 15 14 14 14 15 15 15 15 15 15 15 15 16 16 16 15 15
15 15 14 14 14 14 14 15 15 15 15 16 16 16 16 16 16 16 16 16 15 15 14 15 15 14 14 14 14 15 15 15 16 16 17 17 17 18 18 18 17 18 17 16 16 16 16 16 16 17 17 17 17 17 16 16 16 16 16 16 17 17 17 16 16 15 15 14 14 14 14 14 14 14 14 15 15 15 15 15 15 15 15 15 15
16 15 15 15 14 14 14 15 15 15 15 15 15 15 15 15 15 15 15 15 14 14 13 14 14 14 14 14 14 14 14 15 15 15 16 16 16 16 17 17 17 17 17 16 16 16 16 16 16 16 16 16 16 16 16 16 16 16 16 16 16 16 16 16 15 15 15 14 14 14 14 14 14 14 15 15 15 15 15 15 15 15 15 15 15
16 16 15 15 15 15 15 15 15 15 15 15 14 14 14 14 14 14 14 14 14 13 13 13 13 13 14 14 14 14 14 15 15 15 15 16 15 16 16 16 17 17 17 16 16 16 16 16 16 16 16 16 16 16 16 16 16 16 16 16 16 15 15 15 15 15 14 14 14 14 14 15 15 15 15 15 15 15 15 15 15 15 15 15 15
16 16 16 16 15 16 15 15 15 15 15 15 15 15 15 14 14 14 14 14 14 14 14 14 14 14 14 14 14 14 15 15 15 15 15 15 15 16 16 16 16 16 16 16 16 16 16 16 16 16 16 16 16 16 16 16 16 15 15 15 15 15 15 15 15 15 14 14 14 14 15 15 15 15 15 15 15 15 15 15 15 15 15 15 15
16 16 16 16 16 16 16 16 16 16 16 16 15 15 15 15 15 15 15 15 15 14 14 14 14 14 14 14 14 15 15 15 15 15 15 15 16 16 16 16 16 16 16 16 16 16 16 16 16 16 16 16 16 16 15 15 15 15 15 15 15 15 15 15 15 14 14 14 14 14 14 15 15 15 15 15 15 15 15 15 15 14 15 15 14
16 16 16 16 16 16 16 16 16 16 15 15 15 15 15 15 15 15 15 15 15 15 15 14 14 15 15 15 16 16 15 15 15 15 16 16 16 17 17 17 17 17 16 16 16 16 16 16 16 16 16 15 15 15 15 15 14 14 14 14 14 14 14 14 14 14 14 14 14 14 14 14 14 14 14 14 14 14 14 14 14 14 14 14 13
17 16 17 17 16 16 16 16 16 15 15 15 14 14 14 15 15 15 15 15 15 15 15 15 15 16 16 16 16 16 16 16 16 16 16 16 17 17 17 17 17 17 16 17 17 16 16 16 15 15 15 15 15 14 14 14 14 14 14 14 14 14 14 13 13 13 13 13 13 13 13 13 13 13 13 13 13 14 14 14 14 14 14 13 13
17 17 17 17 17 17 17 16 16 16 16 15 15 15 14 14 15 15 15 15 15 15 16 16 16 17 17 17 16 16 16 17 17 16 16 16 17 17 17 17 17 17 17 17 17 16 16 15 15 15 15 14 14 14 14 14 14 13 13 13 13 13 13 13 13 13 13 13 13 13 12 12 12 12 12 12 13 13 13 13 13 13 13 12 12
17 17 17 17 18 18 17 17 17 17 16 16 16 15 15 14 14 15 15 15 15 16 16 16 17 17 17 17 17 17 17 17 17 17 17 17 17 17 16 16 16 17 17 17 16 16 15 15 14 14 14 14 14 14 13 13 13 13 13 12 12 12 12 12 12 12 12 12 12 12 12 12 12 12 12 12 12 12 12 13 13 13 13 12 11
17 17 17 17 18 18 18 18 18 17 17 17 16 16 15 15 15 15 15 16 16 16 16 17 17 17 17 17 18 17 17 17 17 17 17 17 17 17 16 16 16 17 17 17 16 15 15 15 14 14 14 14 13 13 13 13 13 12 12 12 12 12 12 12 12 12 12 12 11 11 11 11 11 11 11 11 12 12 11 11 12 12 12 11 11
17 17 17 18 18 18 18 18 18 18 17 17 17 16 16 15 15 15 15 16 16 16 16 17 17 17 17 17 17 17 17 17 17 17 17 17 17 17 17 17 17 17 17 16 15 15 15 14 14 14 14 14 13 13 13 12 12 12 12 12 11 11 11 11 11 11 11 11 11 11 11 11 11 11 11 11 11 11 11 10 11 11 11 10 10
18 18 18 18 18 18 18 18 18 17 18 18 17 17 16 16 16 16 16 16 16 16 16 16 16 17 17 17 17 17 17 17 17 17 17 17 17 17 17 17 16 16 16 16 15 15 15 14 14 14 13 13 13 13 12 12 12 11 11 11 11 11 11 10 10 10 10 10 10 10 10 10 10 10 10 10 10 10 10 10 10 10 10 10 9
18 18 18 18 19 19 19 18 18 18 17 17 17 17 17 17 16 16 16 16 16 16 16 16 16 16 16 17 17 17 17 17 17 17 17 17 17 17 17 17 16 16 15 15 15 15 14 14 14 13 13 13 12 12 12 12 11 11 11 11 10 10 10 10 10 9 9 9 9 9 9 10 10 10 10 10 10 10 10 10 9 9 9 9 9
18 18 18 19 19 19 19 19 19 18 18 17 17 17 17 17 17 17 16 16 16 16 16 16 16 16 16 16 16 17 17 17 17 17 17 17 17 17 17 16 16 15 15 15 15 14 14 14 13 13 13 12 12 12 11 11 11 11 11 10 10 10 10 9 9 9 9 9 9 9 9 9 9 9 9 9 9 9 9 9 9 9 9 9 9
18 18 18 18 19 19 19 19 19 19 19 18 18 17 17 17 17 17 17 17 16 16 16 16 16 16 16 16 16 16 16 16 16 16 16 17 17 17 16 16 16 15 15 14 14 14 14 13 13 13 12 12 12 11 11 11 11 11 10 10 10 10 10 9 9 8 8 8 8 8 8 9 9 9 9 9 9 9 9 9 9 8 8 8 8
18 18 18 18 18 18 18 18 18 18 19 18 18 18 18 17 17 17 17 17 17 16 16 16 16 16 16 16 16 16 16 16 16 16 16 16 16 16 16 16 15 15 15 14 14 14 13 13 13 12 12 12 11 11 11 11 11 10 10 10 10 10 10 9 9 8 8 8 8 8 8 8 9 9 9 9 8 8 8 8 8 8 8 8 8
18 17 17 18 18 18 18 18 18 18 18 18 18 18 18 18 17 17 17 17 17 16 16 16 16 16 16 16 16 16 16 17 17 16 16 16 16 16 16 16 15 15 15 14 14 14 13 13 12 12 12 11 11 11 11 10 10 10 10 10 10 10 10 9 8 7 7 7 7 8 8 8 8 8 8 8 8 8 8 8 8 8 8 8 8
17 17 17 17 18 18 18 18 18 18 18 18 18 18 18 18 17 17 17 17 17 16 16 16 16 16 16 16 16 16 16 17 16 16 16 16 16 16 16 16 15 15 14 14 14 13 13 13 12 12 11 11 11 11 10 10 10 10 10 10 10 9 9 9 8 7 7 7 7 8 8 8 8 8 8 8 8 8 8 8 8 8 8 8 8
17 17 17 17 17 18 18 17 17 18 18 18 18 18 18 17 17 17 17 16 16 15 15 16 16 16 16 16 16 16 17 17 16 16 16 16 16 16 16 15 15 15 14 14 14 13 13 12 12 11 11 11 11 10 10 10 10 10 10 9 9 9 9 8 7 7 7 7 7 7 7 7 8 8 7 7 7 8 7 7 7 7 7 7 7
17 17 17 17 17 17 17 17 17 17 17 17 17 17 17 17 17 16 16 15 15 15 15 15 15 16 16 16 16 16 17 17 16 16 16 15 15 15 15 15 15 14 14 14 13 13 13 12 12 11 11 10 10 10 10 10 10 9 9 9 8 8 8 7 7 6 6 7 7 7 7 7 7 7 7 7 7 7 7 7 7 7 7 7 7
17 17 17 17 17 17 16 16 17 16 16 16 16 16 16 16 16 15 15 15 14 14 14 14 15 15 16 16 16 16 16 16 16 16 15 15 15 15 15 15 14 14 13 13 13 13 12 12 11 11 10 10 10 10 9 9 9 9 8 8 8 7 7 7 6 6 6 6 7 7 7 7 7 7 7 7 7 7 7 7 7 7 7 7 7
17 17 17 16 16 16 16 16 16 16 15 15 15 15 15 15 15 15 14 14 14 14 14 14 15 15 15 15 15 16 16 16 16 16 15 14 14 14 14 14 14 13 13 13 12 12 12 12 11 11 10 10 9 9 9 9 8 8 8 7 7 7 6 6 6 6 6 6 6 6 6 6 6 7 7 7 7 7 7 7 6 6 6 6 6
17 16 16 16 16 16 16 15 15 15 15 15 15 14 14 14 14 14 14 14 14 14 14 14 14 14 15 15 15 15 15 15 15 15 14 14 13 13 13 13 13 13 13 12 12 12 12 11 11 10 10 9 9 9 8 8 8 7 7 7 6 6 6 6 6 6 6 6 6 6 6 6 6 7 7 7 7 7 6 6 6 6 6 6 6
16 16 16 16 15 15 15 15 15 15 15 14 14 14 14 14 14 14 14 13 13 13 14 14 14 14 14 14 14 14 14 14 14 13 13 13 12 12 13 13 13 13 12 12 12 11 11 11 10 10 9 9 8 8 8 7 7 7 7 6 6 6 6 6 6 6 6 6 6 6 6 6 6 6 6 6 6 6 6 6 6 6 6 6 6
16 16 16 15 15 15 14 14 14 14 14 14 14 14 13 13 13 13 13 13 13 13 13 13 13 13 13 13 13 13 13 13 12 12 12 12 12 12 12 12 12 12 12 11 11 11 10 10 10 9 9 8 8 8 7 7 7 7 6 6 6 6 5 5 6 6 6 6 6 6 6 6 6 6 6 6 6 6 6 6 6 6 5 5 5
16 16 15 15 15 14 14 14 14 14 13 13 13 13 12 12 12 12 12 12 12 12 12 12 12 12 12 12 12 12 12 12 12 12 12 12 12 12 12 12 12 12 11 11 11 10 10 9 9 9 8 8 8 7 7 7 7 6 6 6 5 5 5 5 6 6 6 6 6 6 6 6 6 6 6 6 6 6 6 6 6 5 5 5 5
15 15 15 14 14 14 14 13 13 13 13 13 12 12 11 11 11 11 11 11 11 11 11 11 11 11 11 11 11 11 11 11 11 11 11 11 11 11 11 11 11 11 11 10 10 10 9 9 8 8 8 7 7 7 7 7 6 6 6 5 5 5 5 5 5 6 6 6 6 6 6 6 6 6 6 6 6 6 5 5 5 5 5 5 5
15 15 14 14 14 13 13 13 13 13 13 12 12 12 11 11 10 10 10 10 10 10 10 10 10 10 10 11 11 11 11 11 11 11 11 11 11 11 11 11 10 10 10 10 9 9 9 8 8 8 7 7 7 7 7 6 6 6 6 5 5 4 5 5 5 5 6 6 6 6 6 6 6 6 6 6 6 5 5 5 5 5 5 5 5
Height
798 798 799 800 801 802 804 806 808 810 811 812 813 814 816 817 817 819 820 821 822 822 823 824 825 826 826 827 828 828 828 828 829 829 829 829 830 830 830 830 831 831 831 832 832 832 833 833 833 833 833 833 833 833 833 833 833 833 833 833 832 832 832 832 832 829 827 827 827 827 826 825 825 825 824 824 824 823 823 823 824 824 824 824 824
794 796 798 799 800 801 802 804 806 808 810 810 812 813 814 815 816 817 818 819 820 821 822 823 823 824 825 826 826 826 826 827 827 827 827 827 828 828 829 829 829 830 830 830 830 831 831 831 832 832 832 832 832 832 832 832 832 832 832 832 831 831 831 831 831 830 827 826 826 826 826 825 824 824 824 823 823 823 823 823 823 823 823 823 823
790 793 796 796 798 800 801 803 804 806 808 809 810 811 812 813 814 815 816 818 819 820 821 821 822 823 823 824 824 824 825 825 825 825 825 826 826 826 827 828 828 828 828 828 829 829 830 830 830 831 831 830 831 831 831 831 831 831 830 830 830 830 830 830 830 830 828 827 826 826 825 825 824 824 823 823 822 822 822 822 822 822 822 822 822
785 790 793 794 796 798 799 801 803 804 805 806 807 809 810 812 813 814 815 816 817 818 819 820 821 821 821 822 822 823 823 823 824 824 824 824 824 825 825 826 826 826 827 827 827 828 828 828 828 829 829 829 829 829 830 830 829 829 829 829 829 829 828 829 829 829 828 827 825 825 825 824 824 823 823 822 822 821 821 820 821 821 820 820 820
782 785 790 793 795 796 797 799 800 801 803 804 805 807 808 810 812 813 814 815 816 817 817 818 819 819 819 820 821 821 821 822 822 823 823 823 823 823 823 824 824 824 825 825 826 826 826 826 827 827 827 827 827 828 828 828 828 828 828 827 827 827 827 827 827 827 827 826 825 824 824 823 823 822 822 821 820 820 820 820 819 819 819 819 819
780 781 785 790 793 795 795 796 797 798 800 801 803 804 806 807 809 811 812 813 814 815 815 816 816 817 818 818 819 819 820 820 821 821 822 822 822 822 822 822 822 823 823 824 824 824 824 825 825 826 826 826 826 826 827 827 827 827 826 826 826 826 826 826 826 826 826 825 825 824 823 823 822 822 821 820 820 819 819 819 818 818 818 817 817
779 779 780 783 788 792 794 794 795 796 798 799 801 802 804 805 807 808 810 811 812 812 813 814 814 815 816 817 817 818 818 819 819 820 820 820 820 820 820 820 821 821 822 822 822 823 823 823 823 823 824 824 824 824 824 825 825 825 825 825 825 825 825 825 825 825 825 824 824 823 823 822 822 821 820 820 819 819 818 818 817 817 816 816 815
778 778 778 779 782 786 790 792 792 793 795 797 799 800 801 803 805 806 808 809 809 810 811 812 813 813 814 815 815 816 816 817 817 818 818 818 818 818 818 818 819 819 820 821 821 821 821 821 821 822 822 822 822 821 821 822 822 822 822 822 823 823 823 824 824 824 824 823 823 822 822 821 821 820 819 819 819 818 818 817 816 816 815 814 814
775 777 778 778 778 781 786 789 790 791 793 795 796 798 799 801 803 804 805 806 806 807 808 810 811 811 812 813 814 814 814 814 815 816 816 817 817 817 817 817 817 818 818 819 819 820 820 820 819 820 820 821 820 820 820 820 820 820 820 820 821 820 820 821 822 823 823 823 823 822 821 821 820 819 819 818 818 818 818 817 816 815 814 813 813
774 775 776 776 777 778 782 786 787 788 790 792 794 795 797 799 801 802 803 803 804 805 806 807 808 809 810 811 811 811 812 812 813 814 814 815 815 815 815 815 816 816 817 817 818 818 818 817 817 819 820 820 820 819 818 818 819 819 819 819 818 818 819 820 821 821 823 823 823 822 821 820 819 819 819 818 818 817 817 817 815 814 814 812 811
772 773 773 774 775 777 779 781 784 785 787 789 791 793 795 796 798 799 800 801 801 802 803 804 805 807 807 808 809 809 809 810 810 811 812 812 813 813 813 814 814 815 815 815 816 815 815 815 816 818 818 818 818 817 817 817 817 818 818 818 817 817 818 819 820 820 821 822 822 821 820 819 818 818 818 817 817 816 816 816 815 814 813 813 811
770 771 771 773 774 775 776 778 781 782 784 787 789 791 793 794 796 797 797 798 799 799 800 801 802 804 805 806 807 807 807 808 808 809 809 810 811 811 811 812 812 813 814 814 814 813 813 814 814 815 816 816 816 816 816 817 817 817 817 816 816 816 816 817 818 819 820 821 821 820 819 818 817 817 816 816 815 815 815 814 814 813 813 812 811
769 770 771 773 774 775 777 778 779 781 782 785 787 789 791 793 794 795 796 797 798 798 798 799 800 802 803 804 805 805 806 806 807 807 808 808 809 809 809 809 810 811 812 812 812 812 812 812 812 812 814 815 815 815 815 815 816 816 815 815 814 815 815 816 816 817 819 819 819 819 818 817 816 816 815 815 814 814 813 813 812 812 812 811 810
767 769 770 773 775 777 779 781 782 782 783 784 784 785 788 791 792 794 795 796 796 797 798 799 800 801 802 802 803 803 804 805 805 806 807 807 807 807 807 808 808 809 810 810 810 810 811 811 812 813 813 814 814 814 814 814 814 814 814 814 813 813 814 815 815 816 816 817 818 817 816 816 816 815 814 814 814 813 812 811 811 810 810 809 808
765 767 768 770 773 775 777 780 782 784 785 785 783 782 783 786 789 792 794 795 795 796 797 798 800 801 803 803 802 802 802 803 804 805 805 805 806 806 806 806 806 807 808 809 809 810 810 811 811 812 812 812 813 813 813 813 813 813 813 813 813 812 812 813 814 814 814 814 815 815 815 815 815 814 814 813 813 812 811 810 810 809 808 807 806
763 764 766 767 770 771 774 777 779 782 784 785 784 783 782 782 785 789 793 795 795 794 795 796 797 800 803 804 802 801 800 801 801 802 803 803 804 804 804 804 805 805 806 807 807 808 808 808 808 809 811 811 811 812 812 812 812 812 812 812 813 813 813 812 812 813 813 813 813 813 813 813 813 813 813 812 811 811 810 809 809 808 807 805 804
761 763 765 766 768 770 772 775 777 779 780 781 783 784 782 782 783 785 790 795 795 793 793 793 794 797 801 802 801 799 799 799 799 800 801 801 802 802 802 803 804 804 805 806 805 805 806 806 807 808 809 809 809 810 810 810 810 810 811 812 813 813 813 813 812 813 813 813 812 812 811 811 811 811 811 810 810 809 808 807 807 807 805 804 802
761 763 764 766 767 768 770 773 775 776 776 777 780 782 782 782 782 783 787 793 794 792 790 790 791 794 797 798 798 797 797 797 797 798 799 800 800 801 802 803 804 805 805 805 804 803 804 805 806 807 806 807 809 809 809 809 808 809 810 811 812 813 813 813 813 813 813 813 812 811 810 810 809 809 809 809 808 808 807 806 806 805 804 803 801
763 763 765 765 766 767 769 771 773 775 774 774 777 781 782 782 782 782 786 791 792 790 788 788 789 792 795 795 796 796 795 795 795 796 797 798 799 799 801 803 805 806 805 804 803 803 804 805 806 806 805 806 808 808 808 808 807 808 809 810 811 813 813 814 813 813 812 812 811 811 810 810 809 809 809 808 807 807 806 805 804 803 802 801 801
765 765 765 765 766 767 769 770 772 774 774 774 777 780 781 781 781 783 786 788 788 787 787 788 790 792 794 794 794 794 794 794 795 795 796 797 797 798 799 801 802 803 803 802 802 803 804 805 806 806 806 807 807 808 808 808 808 808 808 809 811 812 813 814 814 813 813 812 812 812 811 811 810 809 809 808 807 807 806 805 804 803 803 802 801
767 767 767 767 768 768 769 770 772 773 776 776 777 779 780 781 782 783 784 785 784 784 786 788 790 791 793 793 793 794 794 795 795 795 795 796 796 797 798 799 799 800 801 802 803 803 804 805 806 807 808 808 808 808 808 808 808 808 809 810 811 812 813 813 814 814 814 814 813 812 812 811 810 810 809 809 808 808 807 806 805 804 803 803 802
770 770 770 770 771 771 772 772 773 775 777 777 777 778 779 780 780 781 782 783 784 785 787 788 790 791 792 793 794 794 795 796 796 795 795 795 795 795 796 796 797 798 801 803 805 805 806 807 808 809 809 809 809 809 810 810 809 809 810 811 812 812 813 813 814 814 814 814 813 813 812 811 810 810 810 810 810 809 808 807 806 805 805 804 803
772 773 774 774 775 775 776 776 776 777 778 778 777 777 778 779 780 781 783 785 786 788 790 791 792 792 793 794 795 796 797 797 797 797 796 795 795 795 795 796 797 799 801 805 807 808 808 808 810 811 811 811 811 812 811 811 811 812 813 813 813 814 814 814 814 814 814 813 813 813 813 812 811 811 811 811 811 811 810 809 808 807 806 805 804
775 776 777 777 778 779 779 779 778 779 780 781 781 781 782 783 784 786 787 789 790 792 794 795 795 795 796 798 798 799 800 800 799 799 798 797 797 797 797 797 799 801 803 806 809 810 810 810 811 813 813 813 813 813 813 813 813 814 814 815 815 815 815 815 816 816 815 814 814 814 814 813 813 812 812 812 812 812 812 811 810 809 808 807 806
778 779 780 780 781 782 781 781 781 781 783 784 785 786 788 789 791 792 793 794 795 796 797 798 799 799 799 800 801 802 803 802 802 801 800 800 801 800 800 800 802 803 804 807 810 812 813 813 813 814 815 815 815 814 814 815 815 816 816 817 817 817 817 817 818 817 816 817 817 816 816 815 815 815 814 814 813 813 813 812 811 811 810 809 808
782 783 783 784 785 785 784 784 785 786 787 789 791 792 794 795 796 797 798 798 799 800 800 801 801 801 801 801 802 803 804 804 804 804 804 804 805 805 804 804 805 805 807 809 812 814 814 815 815 816 817 816 816 816 816 817 818 818 818 818 819 819 820 820 820 819 819 819 819 818 818 818 818 817 816 815 815 814 814 813 812 811 811 810 808
787 787 787 788 788 788 787 788 789 790 792 793 795 796 798 798 799 799 800 801 801 802 803 803 803 802 802 803 804 805 805 806 806 806 807 807 808 809 808 807 808 808 810 812 814 815 816 817 818 818 819 818 818 818 819 820 820 821 821 821 822 822 823 823 823 822 822 822 821 821 821 820 819 819 818 817 816 816 815 814 813 812 811 810 808
791 791 791 791 791 790 791 792 792 793 795 795 796 798 799 799 800 800 802 802 803 804 805 805 805 805 805 805 806 806 807 807 807 808 809 810 811 812 811 811 811 812 813 815 816 817 818 819 820 821 821 821 821 822 822 823 823 824 824 825 825 825 825 825 824 824 824 824 823 823 823 822 821 821 820 820 819 818 817 816 815 814 813 811 810
793 794 794 793 793 793 794 795 795 796 797 797 798 799 801 801 801 802 803 804 805 805 806 806 807 807 807 807 807 807 808 809 810 810 812 813 814 814 815 815 815 816 817 818 818 819 820 821 822 823 823 823 824 825 825 826 826 826 827 827 827 827 827 826 826 826 826 826 825 825 825 825 824 824 823 822 821 820 819 817 816 815 814 813 812
796 797 796 796 797 797 797 798 799 799 799 799 800 801 802 804 804 804 805 807 807 808 808 808 808 809 809 809 809 809 810 811 812 813 814 815 816 817 818 818 818 819 820 820 821 821 822 823 824 825 825 826 826 827 828 828 828 829 829 830 830 829 829 829 829 829 829 828 828 828 827 827 827 826 825 824 823 822 820 819 818 817 816 815 814
799 800 800 800 800 801 801 801 802 802 802 802 802 803 804 806 807 807 808 809 810 810 810 810 811 811 811 810 811 811 812 813 814 815 816 817 818 819 820 821 821 822 822 822 822 823 824 825 826 827 828 828 829 830 831 831 831 832 832 832 832 832 832 832 832 832 831 831 831 830 830 830 829 828 827 826 825 823 822 821 820 818 817 816 816
802 803 803 804 804 804 804 805 805 805 805 805 806 806 807 808 809 811 812 812 813 813 813 814 814 814 814 814 814 814 815 816 817 818 819 820 821 821 822 823 823 824 824 824 824 826 827 828 829 830 830 831 832 833 833 834 834 835 835 834 835 834 834 834 834 834 833 833 833 832 832 831 831 830 829 827 826 825 824 823 822 820 819 818 817
806 806 806 806 807 807 808 808 808 808 808 809 809 809 810 811 812 814 815 815 816 816 816 817 817 817 818 818 818 818 819 820 821 821 822 822 823 824 824 825 826 826 826 826 827 829 830 831 832 833 833 834 835 835 836 836 836 836 836 836 837 837 837 837 837 836 836 835 835 834 833 833 832 831 830 829 828 827 826 825 824 822 821 820 820
809 809 809 809 809 809 810 810 811 811 812 812 813 813 814 814 815 816 817 818 818 819 819 820 820 821 821 821 822 822 823 823 824 824 825 825 826 826 827 827 828 829 829 829 830 831 832 833 834 835 836 836 837 837 838 838 838 839 839 839 839 839 840 839 839 838 837 837 836 835 835 834 833 832 831 830 829 828 827 826 826 824 823 822 822
811 811 811 811 811 811 812 812 812 813 814 815 816 816 817 818 818 819 819 820 821 822 822 823 823 824 824 825 825 825 826 827 827 827 828 828 828 829 829 829 830 831 831 832 833 834 834 835 836 837 838 838 839 840 840 840 841 841 841 841 841 841 841 840 839 839 838 838 837 836 836 835 834 833 832 832 831 830 829 828 827 826 825 825 824
813 813 813 813 813 813 813 814 814 815 816 817 818 819 819 820 821 821 822 823 823 824 825 825 826 826 827 827 828 828 829 829 829 830 830 830 831 831 831 831 832 833 834 834 835 836 836 837 838 839 840 840 841 842 842 842 843 843 843 843 842 842 841 841 840 840 839 838 838 837 836 836 835 834 833 833 832 831 830 830 829 828 827 827 826
815 815 815 815 815 815 815 815 816 816 817 818 819 820 821 822 823 823 824 825 825 826 827 828 828 828 828 829 830 830 831 831 831 832 832 832 833 833 833 833 834 835 835 836 837 838 838 839 840 841 841 842 843 843 844 844 844 844 844 844 843 842 842 842 841 840 840 839 839 838 837 837 836 835 834 834 833 832 832 831 830 830 829 828 827
817 817 817 817 817 817 817 817 817 818 818 819 820 821 822 823 824 824 825 826 827 827 828 829 829 830 830 830 831 832 832 832 833 833 833 834 834 834 834 835 835 836 837 838 839 839 840 841 842 842 843 844 844 845 845 845 845 845 845 845 844 843 843 843 842 841 841 840 840 839 838 837 837 836 835 835 834 833 833 832 831 831 830 829 828
818 818 819 818 818 819 819 819 819 819 820 820 821 822 822 823 824 825 826 827 827 828 829 830 830 831 831 832 832 832 833 833 833 834 834 835 835 835 836 836 837 837 838 839 840 841 841 842 843 844 844 845 846 846 846 847 847 846 846 846 845 845 844 843 843 842 842 841 841 840 839 838 838 837 836 835 835 834 834 833 833 832 831 830 830
819 820 820 820 820 821 821 821 821 822 822 822 823 823 823 824 825 826 826 827 828 829 830 830 831 832 832 833 833 833 833 834 834 834 835 835 836 836 837 837 838 838 839 840 841 842 842 843 844 845 846 846 847 847 848 848 848 847 847 847 846 846 845 844 844 843 843 842 842 841 840 839 839 838 837 837 836 836 835 835 834 833 833 832 831
820 821 821 821 822 822 822 823 823 823 824 824 824 825 825 825 826 827 827 828 828 829 830 831 831 832 832 833 833 834 834 834 834 835 835 836 836 837 837 838 838 839 840 841 842 843 843 844 845 846 847 848 848 849 849 849 849 848 848 848 847 847 846 845 845 844 844 843 843 842 841 841 840 839 839 838 837 837 836 836 835 835 834 834 833
821 821 822 822 823 823 824 824 825 825 825 825 825 826 826 827 827 827 827 828 828 829 830 830 831 832 832 833 833 834 834 834 834 835 835 836 837 837 838 839 839 840 841 842 843 844 845 846 847 847 848 849 849 850 850 850 849 849 849 849 848 848 847 846 845 845 845 844 844 843 843 842 841 841 840 839 839 838 838 837 837 836 836 835 835
821 822 822 823 824 824 825 825 825 826 826 826 826 827 827 827 828 828 828 828 829 829 830 831 831 832 833 833 834 834 834 834 835 835 836 836 837 838 838 839 840 841 842 843 844 845 846 846 847 848 849 850 850 850 850 850 850 850 850 849 849 848 847 846 846 846 845 845 845 844 844 843 843 842 842 841 840 840 840 839 839 838 838 837 837
822 822 823 824 824 825 826 826 827 827 827 827 828 828 828 829 829 829 829 830 830 830 831 831 832 832 833 834 834 835 835 835 836 836 836 837 837 838 839 840 841 842 843 844 845 846 847 847 848 849 850 850 851 851 850 851 851 850 850 849 849 848 847 847 847 846 846 846 846 845 845 844 844 843 843 843 842 842 841 841 841 840 840 839 838
822 823 824 824 825 826 827 828 828 828 829 829 829 829 830 831 831 831 831 832 832 832 833 833 833 834 834 834 835 836 836 836 836 836 837 837 838 838 839 840 841 843 844 845 846 847 848 848 849 849 850 851 851 851 851 851 851 850 850 849 849 848 848 847 847 847 847 847 847 846 846 846 845 845 845 844 844 843 843 843 842 842 841 841 840
823 824 825 826 827 827 828 829 830 830 831 831 831 832 832 833 833 834 834 834 834 834 835 835 835 835 835 836 836 836 837 837 837 837 837 838 838 839 840 841 843 844 845 846 847 848 848 849 850 850 851 851 852 852 852 852 852 851 850 850 850 849 849 848 848 848 848 848 848 847 847 847 846 846 846 845 845 845 845 844 844 843 842 842 841
824 825 826 827 828 829 830 831 831 832 832 833 833 834 834 835 835 835 835 836 836 836 836 836 836 836 836 837 837 837 837 837 837 837 838 838 839 840 841 842 843 844 845 846 847 848 849 849 850 851 851 852 852 852 852 852 852 852 851 850 850 850 849 849 849 849 849 849 849 848 848 848 847 847 847 847 846 846 846 845 845 844 844 843 842
825 826 827 828 829 830 831 832 833 833 834 834 835 836 836 837 837 837 837 837 837 837 837 837 837 837 838 838 838 838 838 838 838 838 839 839 840 841 842 843 844 845 846 847 848 849 850 850 851 851 852 852 852 852 852 852 852 852 851 851 851 850 850 850 850 850 850 850 850 849 849 849 848 848 848 848 847 847 847 846 846 845 845 844 843
826 827 828 829 830 832 833 833 834 835 835 836 837 837 838 838 838 838 838 839 839 839 839 839 839 839 839 839 839 839 839 839 839 840 840 841 842 843 844 844 845 846 847 848 849 850 851 851 852 852 852 853 853 853 852 852 852 852 852 851 851 851 851 851 851 851 851 851 850 850 850 850 849 849 849 849 848 848 848 847 847 846 846 845 844
827 828 829 831 832 833 834 835 835 836 837 837 838 838 839 839 839 840 840 840 840 840 840 840 840 840 840 840 840 841 841 841 841 842 842 843 843 844 845 846 847 848 849 850 850 851 852 852 852 853 853 853 853 853 853 853 853 853 852 852 852 852 852 852 851 851 852 851 851 851 851 851 850 850 850 850 849 849 849 848 848 847 847 846 846
828 829 830 832 833 834 835 835 836 837 838 838 839 839 840 840 840 841 841 841 841 841 841 841 841 841 842 842 842 842 842 842 843 843 844 845 845 846 846 848 848 849 850 850 851 851 852 853 853 854 854 854 854 854 854 853 853 853 853 853 852 852 852 852 852 852 852 852 852 852 851 851 851 851 850 850 850 850 849 849 848 848 848 847 846
Wind_Speed
27 28 29 29 29 29 29 28 26 25 23 22 22 23 22 21 20 19 18 17 16 16 16 16 17 17 17 16 16 16 16 16 17 18 18 18 18 17 17 17 17 16 15 15 15 15 15 15 14 14 14 14 14 14 14 13 13 12 11 12 12 12 12 12 10 10 14 13 11 11 10 8 6 5 5 3 2 3 3 5 7 8 9 9 9
28 28 28 27 28 29 29 29 28 27 25 24 23 22 22 22 20 19 19 18 18 17 17 17 17 18 17 17 16 16 16 16 17 18 19 19 19 18 18 18 18 18 17 16 15 15 16 17 16 16 16 16 15 15 15 14 14 15 14 13 13 13 13 13 12 10 13 15 13 11 10 9 7 6 5 5 4 5 5 6 7 8 8 9 9
29 28 28 28 28 28 26 27 28 28 28 26 25 24 22 22 20 20 20 19 19 18 18 17 17 17 18 18 18 18 18 18 18 19 19 19 19 20 19 20 20 20 19 18 17 17 17 18 18 18 17 17 17 16 16 16 16 16 15 14 13 14 13 13 13 12 13 15 14 12 11 10 10 8 7 7 8 9 9 8 8 8 8 9 9
29 28 27 28 29 28 27 27 27 28 29 29 28 27 24 22 21 21 21 20 20 19 19 18 18 18 19 19 19 19 19 19 19 20 20 20 20 21 21 22 22 22 21 21 20 20 20 19 19 19 18 17 17 17 16 16 16 16 16 15 15 15 13 11 12 13 13 14 15 14 13 13 12 11 10 9 9 10 10 10 10 10 10 10 11
29 27 25 25 26 28 28 28 28 28 30 30 30 29 27 24 22 21 21 21 21 21 20 20 20 20 21 21 21 20 20 20 20 20 20 20 20 21 22 23 23 23 23 23 22 22 22 21 21 20 18 18 18 17 16 16 15 15 16 16 15 14 13 12 12 12 14 15 16 16 15 15 14 13 11 10 11 11 10 10 11 11 12 12 12
29 29 27 24 23 26 28 28 29 29 30 30 30 30 29 27 25 24 24 24 24 23 23 23 23 23 23 23 23 23 22 21 20 20 20 20 20 21 22 23 24 24 23 23 22 21 21 22 21 19 17 17 17 18 17 16 16 16 16 16 14 14 13 13 11 11 12 14 15 16 16 15 15 14 12 10 11 12 11 11 10 9 9 10 10
29 30 31 27 25 25 28 29 30 30 29 29 30 30 29 29 27 26 26 25 25 25 25 25 25 25 24 24 24 24 23 22 22 21 21 21 21 22 23 23 24 24 23 23 21 21 21 21 21 19 16 15 15 16 17 17 17 18 17 16 15 14 14 13 11 9 10 11 12 14 15 15 14 14 13 12 11 11 10 10 10 9 8 9 9
27 28 28 29 29 29 29 30 30 30 29 29 29 29 29 29 28 27 26 25 25 24 24 25 25 24 24 24 25 25 25 24 23 23 23 23 23 23 23 24 24 25 24 24 23 23 22 21 20 18 15 13 13 14 16 17 17 17 16 15 14 13 12 11 10 9 9 10 11 13 13 14 14 14 13 12 10 8 8 9 11 12 12 11 11
28 27 26 29 32 32 31 31 31 30 29 29 28 29 28 27 27 26 25 25 24 23 23 23 23 24 24 25 25 26 26 26 25 24 23 23 24 24 24 24 25 25 25 25 26 25 22 20 20 17 15 13 13 13 13 14 14 14 12 11 10 10 9 9 9 10 10 11 12 12 11 11 12 13 12 10 9 9 10 11 11 12 14 14 13
28 28 28 31 32 31 30 30 30 30 29 29 29 28 27 26 25 25 25 25 23 22 22 22 23 24 25 26 26 27 28 27 26 24 23 23 24 24 24 24 25 25 26 27 26 23 20 20 19 15 14 15 14 13 12 11 12 11 8 7 7 8 8 8 9 9 10 12 12 11 10 10 10 10 11 11 11 11 10 10 11 12 14 14 13
27 29 31 33 32 30 30 31 30 29 29 29 28 27 26 25 25 25 25 24 22 21 21 21 20 20 21 22 24 26 26 26 25 24 24 23 22 22 23 24 25 25 25 25 23 21 20 20 17 15 16 16 14 13 12 11 11 11 9 8 7 8 8 8 9 9 9 12 12 9 9 11 10 9 10 10 10 10 9 9 12 12 11 10 10
26 27 29 30 30 29 31 30 29 27 26 26 26 26 25 25 25 25 24 22 22 20 19 17 15 14 16 18 20 21 22 23 24 24 24 22 21 21 22 23 24 24 23 21 20 20 20 19 16 16 17 14 12 12 11 10 10 11 10 9 9 9 9 8 8 10 11 12 11 10 9 9 10 9 9 8 8 9 10 11 13 13 11 9 9
24 26 27 26 26 26 27 26 26 26 25 22 20 19 18 20 22 22 22 22 22 21 19 17 15 13 15 17 17 18 19 20 21 21 22 21 21 21 21 22 23 20 18 19 19 19 18 17 16 15 14 11 10 10 9 9 9 8 8 9 10 8 5 4 6 9 9 9 9 9 8 8 9 9 8 8 10 12 12 11 12 12 11 11 11
21 22 20 18 18 18 19 19 19 19 17 15 14 14 12 13 17 20 22 23 24 23 21 18 16 16 16 16 16 15 17 19 19 20 20 20 21 21 21 22 21 18 16 17 17 17 15 14 12 10 9 8 7 7 7 7 7 7 6 7 9 8 5 5 6 7 7 7 8 9 8 7 8 8 9 10 12 13 12 11 12 12 12 14 13
19 19 18 18 18 17 18 20 19 16 12 11 13 16 16 14 14 15 18 22 24 19 13 9 9 11 13 14 14 14 15 17 17 18 19 19 20 20 20 19 18 17 15 14 12 9 8 8 8 8 7 6 6 4 4 4 4 5 6 5 5 6 6 7 7 6 7 7 7 8 8 9 9 9 9 10 11 11 11 11 11 12 14 15 14
21 21 20 20 20 20 20 22 22 20 17 13 13 17 18 16 13 11 13 17 16 12 8 8 9 9 12 13 14 13 14 15 15 16 17 18 19 19 18 16 15 14 12 10 8 7 7 7 7 8 7 6 4 2 2 2 2 3 5 3 1 1 4 7 7 7 8 7 6 7 8 9 10 10 11 11 12 12 12 11 11 11 13 14 13
21 20 18 18 19 19 19 19 21 21 20 16 16 18 18 16 13 12 14 15 10 7 9 10 10 10 11 12 13 12 12 13 15 16 17 17 17 16 15 13 12 11 9 8 10 12 10 7 6 7 7 5 3 2 1 2 1 1 3 3 4 3 2 3 4 5 6 5 6 7 7 9 10 11 11 11 11 11 12 11 10 11 12 12 11
16 16 15 17 20 20 19 18 18 19 19 18 18 19 18 16 15 14 15 15 10 7 9 9 8 9 10 11 12 11 11 12 13 14 15 16 15 14 12 8 6 5 5 6 7 5 3 6 7 8 7 5 3 2 2 1 2 3 4 5 5 6 5 4 4 5 4 4 5 6 7 8 9 9 9 9 8 9 10 12 12 13 13 12 11
9 9 9 12 16 19 20 19 18 18 18 18 18 18 16 15 13 12 12 12 10 8 8 7 6 7 8 9 9 9 9 10 11 13 14 14 14 12 7 5 5 5 5 6 8 10 12 11 8 8 8 7 5 4 3 3 5 6 6 6 8 9 9 8 7 6 6 6 7 7 8 9 9 9 9 7 6 6 7 9 10 11 12 12 12
9 9 10 12 15 18 20 19 19 20 20 19 18 16 14 13 12 11 11 10 8 7 6 6 5 5 5 5 5 5 5 6 9 12 13 14 13 9 5 8 11 11 10 11 14 16 16 15 13 11 10 10 9 8 8 8 9 10 10 10 11 11 9 9 8 7 8 9 10 11 12 12 12 13 14 12 12 11 10 8 7 9 10 11 12
16 17 17 18 19 19 17 17 19 19 18 18 18 16 14 12 11 10 9 7 6 5 5 4 4 4 3 1 0 1 3 4 6 10 11 12 12 8 5 9 14 15 15 14 17 19 19 18 18 15 14 14 13 13 13 13 13 14 14 14 13 11 10 11 10 10 12 14 15 16 16 16 16 17 17 18 18 17 16 15 14 14 13 14 14
20 21 22 22 22 21 19 18 18 17 16 16 17 16 14 13 12 11 10 8 7 7 6 4 4 4 4 3 2 2 3 3 4 7 9 9 8 7 5 9 15 18 19 20 20 21 22 21 20 18 17 17 17 17 17 17 17 17 16 14 13 12 13 14 14 15 17 19 20 21 20 19 20 19 18 18 19 18 17 17 16 15 15 14 15
21 22 24 25 25 24 23 22 21 19 17 16 17 17 16 15 14 13 12 12 12 11 9 7 6 6 6 6 6 6 6 5 5 4 4 2 0 1 4 10 17 21 24 25 23 22 23 23 21 19 18 19 19 19 18 19 19 18 16 14 14 14 16 17 19 20 21 22 23 23 22 21 21 20 17 16 16 16 16 15 15 15 14 13 13
23 24 25 26 26 26 26 26 26 24 22 21 21 21 19 17 16 15 15 15 16 15 13 11 11 10 10 10 9 9 9 9 9 10 9 9 10 10 12 18 23 26 28 27 25 24 24 23 21 20 20 21 21 21 21 21 21 21 19 18 18 18 19 20 21 22 24 23 23 22 22 21 20 20 18 15 13 13 13 13 13 13 13 13 12
25 25 25 25 26 26 28 28 28 26 26 25 24 23 21 20 19 18 18 19 19 19 17 15 15 15 14 13 12 11 11 12 13 14 16 17 18 20 24 27 28 29 30 29 26 25 24 23 23 22 22 22 22 23 24 23 23 22 22 22 21 22 23 23 24 25 25 23 22 22 21 21 20 20 18 16 15 15 14 13 12 11 11 11 12
24 24 23 23 24 26 28 28 27 26 26 25 24 23 22 21 20 19 19 19 19 18 17 16 16 16 16 14 13 12 13 14 15 16 19 22 24 25 29 30 30 31 31 28 25 24 23 23 23 23 23 24 25 26 26 24 24 24 24 24 25 25 25 25 25 26 25 23 23 22 21 20 20 19 18 18 18 18 17 16 15 14 12 11 13
21 21 20 20 21 23 26 26 25 24 24 23 22 22 22 21 21 19 18 18 17 16 16 16 15 15 14 13 13 13 13 15 16 17 19 23 25 26 28 29 29 30 29 27 25 24 24 24 24 24 24 25 25 26 26 25 25 25 25 26 26 26 26 25 25 25 25 24 24 22 20 19 18 18 19 20 20 18 17 16 17 16 14 13 16
20 19 19 19 20 22 24 23 23 23 23 22 22 22 21 22 22 21 20 19 19 18 18 16 15 13 13 12 13 14 15 15 17 19 21 23 25 26 27 28 27 27 27 26 26 25 25 24 24 24 24 25 25 25 25 26 26 26 26 25 25 25 24 24 24 25 24 23 23 22 21 20 20 20 19 19 19 18 17 16 17 17 16 17 18
21 21 21 21 22 23 23 23 24 25 25 25 25 24 22 22 22 22 21 21 21 21 19 18 16 14 14 14 14 16 17 17 18 20 22 23 24 24 25 26 26 26 25 25 25 25 25 24 24 24 24 25 26 26 26 26 26 25 25 24 24 24 24 24 25 24 23 22 22 22 21 21 20 19 19 19 19 18 17 16 16 17 17 19 21
23 22 22 23 23 23 23 23 24 24 25 25 26 25 24 23 23 24 24 23 22 21 20 20 18 17 18 18 18 18 18 18 19 21 22 22 22 22 23 23 24 25 24 23 24 25 24 24 24 24 25 25 25 25 25 25 25 24 24 23 24 23 24 24 23 23 22 22 22 22 21 21 20 19 18 18 17 16 16 16 16 16 17 19 21
23 22 22 22 22 22 22 22 22 23 23 23 24 25 25 25 24 25 25 24 23 22 21 21 20 20 21 22 22 21 20 18 18 20 21 21 20 21 22 21 22 22 20 19 23 24 24 24 24 24 24 24 24 23 23 22 23 22 22 23 23 23 23 23 22 21 21 21 21 22 22 21 20 19 18 17 16 15 15 15 15 16 17 18 19
21 21 20 21 20 21 21 20 20 21 21 21 22 23 24 24 24 23 22 23 23 22 22 21 21 21 22 23 23 23 21 20 18 18 19 19 19 19 20 19 19 17 15 17 23 24 23 23 24 23 23 23 22 21 21 21 21 21 21 22 22 21 21 20 19 19 20 20 19 20 20 20 19 19 18 16 16 15 15 15 15 15 16 17 17
17 17 17 17 17 17 18 18 18 18 18 18 19 20 22 22 21 20 20 21 21 21 21 21 21 21 21 21 21 21 21 20 19 18 17 16 16 16 17 17 16 14 14 19 23 23 21 22 22 21 21 21 20 20 20 20 20 20 20 21 20 19 18 17 16 17 17 17 16 17 17 17 17 16 16 15 15 15 15 15 15 16 16 16 16
14 14 14 14 14 14 14 14 14 15 15 15 16 18 19 19 19 18 18 18 19 19 19 19 18 18 18 18 18 19 18 18 18 17 16 15 15 15 15 16 15 14 16 19 22 21 20 20 19 19 19 18 18 18 18 18 18 18 19 18 17 16 15 14 15 15 15 14 14 14 14 14 14 14 14 14 13 14 14 15 15 16 17 16 15
14 14 14 14 13 13 12 11 11 11 11 12 14 15 16 16 16 16 16 16 16 17 17 16 15 15 15 16 16 16 16 16 16 16 15 15 14 13 14 16 16 16 17 18 18 18 17 17 17 17 17 17 17 17 18 18 18 18 17 17 16 15 15 15 15 14 13 13 13 13 12 12 13 12 12 12 13 14 14 13 12 14 15 16 15
12 12 12 12 11 11 10 10 9 9 9 10 11 11 12 12 13 14 14 14 14 14 15 15 14 13 13 13 13 13 14 14 14 14 13 12 11 11 13 15 16 16 16 16 16 16 15 15 16 16 16 17 17 17 17 18 17 17 17 16 16 16 16 16 15 14 13 13 12 12 11 11 11 11 10 10 12 13 14 13 11 11 12 14 15
10 10 10 9 9 9 8 9 9 8 8 9 9 9 9 10 10 11 12 12 12 12 13 13 12 12 12 11 10 11 12 12 12 11 11 10 10 11 13 14 15 15 15 15 14 14 15 14 14 15 16 16 16 17 17 17 17 17 17 17 18 18 17 16 15 14 13 13 12 12 11 11 10 10 8 9 11 12 13 13 13 12 13 14 15
8 8 8 8 9 10 9 9 9 8 8 8 8 9 9 8 8 9 9 9 10 11 11 10 10 11 12 10 9 9 9 9 8 8 8 9 9 10 12 13 13 14 15 14 14 14 14 14 14 14 15 16 16 16 17 17 17 18 18 19 19 19 18 17 15 14 13 13 13 12 11 10 10 9 8 9 11 12 12 13 13 13 14 14 14
6 7 9 10 11 12 12 11 10 10 9 9 8 8 8 8 7 7 6 7 8 10 10 9 9 10 10 10 8 7 6 6 5 4 6 7 8 8 9 11 12 13 14 13 13 14 15 15 15 15 15 16 15 16 16 16 17 18 19 20 21 20 19 17 16 14 13 12 12 11 10 10 10 10 10 10 11 12 12 12 13 13 13 13 13
9 10 11 12 13 13 13 13 12 12 11 11 10 9 9 8 7 7 6 5 6 8 9 9 9 9 8 8 6 5 4 3 2 2 4 6 6 6 7 8 9 11 12 12 12 13 14 15 15 15 15 15 15 15 15 15 17 18 19 20 21 20 18 16 14 13 12 11 11 10 10 10 10 11 11 12 12 12 12 12 12 12 12 12 13
12 12 12 12 12 12 12 12 12 11 11 10 10 9 9 9 7 6 6 6 6 7 8 9 10 10 9 7 5 4 3 2 1 1 3 4 5 6 6 7 7 8 10 11 12 13 14 14 14 14 14 14 13 13 14 15 16 17 18 19 19 18 16 14 12 11 10 10 10 10 9 10 10 11 12 12 11 11 12 12 12 12 12 13 13
11 11 11 11 10 10 10 11 11 10 10 9 9 9 8 8 7 6 7 7 7 7 8 9 9 9 9 7 5 4 2 2 2 1 2 4 6 6 6 7 7 7 9 10 11 12 13 14 14 14 13 13 12 12 13 14 14 14 16 17 16 15 14 12 10 9 9 9 10 10 9 9 10 10 10 10 10 10 11 12 12 13 13 14 15
10 11 11 10 9 9 9 9 9 10 10 10 10 10 8 8 7 7 8 9 10 9 10 10 9 8 8 6 4 3 3 3 3 3 2 4 6 8 8 8 8 9 10 11 11 11 12 13 13 13 12 11 11 11 13 13 13 13 14 15 14 13 12 11 9 8 9 9 9 10 10 10 10 10 10 10 10 11 12 13 14 15 15 15 15
11 11 11 10 9 9 9 8 9 9 10 11 11 11 10 10 10 10 11 12 12 12 11 11 10 9 7 6 5 4 4 3 2 3 3 3 5 8 9 9 8 10 11 11 11 11 11 11 11 11 11 11 10 11 11 11 11 12 13 14 13 12 11 10 9 8 8 8 8 9 9 10 10 11 11 11 11 11 12 13 14 15 15 15 15
12 12 11 11 11 10 10 10 10 10 11 12 12 13 13 13 13 13 13 13 13 12 12 11 10 8 7 7 6 5 4 3 1 2 3 3 5 8 10 9 9 10 9 9 10 10 9 9 9 10 10 10 10 9 9 9 10 12 13 13 12 11 10 9 9 8 7 7 7 7 7 8 9 10 10 10 11 11 12 12 13 13 14 14 13
14 13 12 12 13 13 13 13 13 12 12 13 13 13 13 13 13 13 13 13 12 12 11 10 9 8 7 7 5 4 3 2 1 2 2 2 5 8 9 9 10 9 8 8 10 10 8 8 8 8 9 9 8 8 8 9 11 12 12 12 11 10 9 8 8 7 6 6 7 8 7 8 8 8 8 9 11 11 12 12 12 12 12 12 12
14 13 13 13 14 15 15 15 15 14 14 13 13 13 12 11 10 10 10 10 10 9 9 9 8 7 7 6 5 4 3 2 1 1 0 3 6 9 10 10 8 7 7 9 10 9 8 8 8 7 8 7 7 8 9 10 11 12 12 11 10 8 7 6 6 6 5 5 7 9 10 9 8 8 8 9 10 10 10 10 11 11 12 12 13
14 14 14 15 16 16 16 16 15 14 14 13 12 11 10 9 8 7 7 7 7 7 7 7 7 7 7 6 6 5 4 3 3 3 4 6 8 10 10 8 6 6 8 10 10 8 7 7 7 7 6 6 7 8 10 11 11 11 11 10 8 7 5 5 5 5 5 5 6 8 8 9 9 10 10 10 10 10 10 10 11 11 11 12 13
14 14 15 16 16 16 15 15 14 14 13 12 11 10 9 8 8 8 7 7 7 7 7 8 8 8 8 8 8 8 7 6 6 7 7 8 8 8 7 6 6 7 10 10 9 7 7 6 6 5 5 6 7 8 10 11 11 11 10 9 7 5 4 4 4 4 4 5 6 6 7 7 8 9 11 11 10 10 10 11 11 11 11 12 12
15 15 15 16 16 16 15 14 13 13 12 11 10 9 9 9 9 9 9 9 9 9 9 9 9 9 10 10 10 11 10 10 10 9 9 8 8 7 7 7 8 9 10 8 7 6 5 5 4 4 5 6 7 8 9 10 11 11 10 8 6 5 5 5 4 4 4 4 5 6 7 7 7 8 9 10 9 10 11 11 10 10 10 11 12
15 15 15 15 15 15 14 13 12 12 11 11 10 10 10 10 10 10 10 10 10 10 10 11 11 12 12 13 13 12 13 13 12 12 11 10 10 9 8 8 8 7 6 6 5 5 5 5 5 5 5 6 7 7 8 9 10 10 9 7 5 5 6 6 5 4 4 4 4 4 5 6 6 7 7 8 9 10 10 9 9 9 10 10 10
Wind_Direction
228 221 219 218 218 220 223 225 226 227 229 229 230 231 233 237 242 245 246 244 242 244 249 253 255 257 260 262 266 270 272 274 277 280 283 283 279 274 273 274 275 279 284 287 288 289 291 292 293 295 300 305 305 305 303 304 307 306 303 295 286 280 264 240 232 264 285 296 308 319 332 335 327 330 335 328 301 283 269 260 263 265 266 271 273
229 227 223 221 221 221 222 224 225 227 228 230 232 234 237 240 244 248 247 244 241 244 251 255 257 258 258 261 267 272 273 273 274 276 278 279 276 272 270 271 274 278 282 284 285 288 290 292 295 296 299 301 302 304 302 300 303 303 301 298 291 286 276 255 243 254 279 293 305 315 327 337 338 334 329 322 311 304 296 285 277 271 270 270 271
224 227 225 224 224 223 224 225 225 226 228 232 235 237 240 242 244 246 245 243 243 247 252 257 259 259 258 262 269 273 273 272 273 274 275 275 274 272 271 271 273 276 279 281 283 285 286 288 291 295 299 300 300 301 300 298 300 300 297 296 294 293 286 269 255 254 271 290 302 309 317 327 334 333 323 315 312 309 303 295 285 275 271 271 274
217 222 226 226 224 223 223 225 226 227 229 232 234 237 240 243 244 244 243 244 247 250 253 256 260 261 262 265 270 273 274 273 273 273 274 275 273 271 271 271 272 274 276 279 282 283 283 283 287 291 294 295 297 301 303 300 298 297 295 293 291 292 290 279 266 261 265 278 290 299 306 312 319 325 321 316 315 310 304 300 294 285 280 279 281
212 213 221 227 226 223 222 223 224 227 229 231 233 234 236 239 241 242 243 246 249 252 253 254 258 261 264 266 268 271 272 272 272 272 273 274 273 271 270 271 273 274 276 280 283 283 282 283 285 288 290 290 294 300 305 304 301 299 297 296 293 291 289 286 278 267 262 267 280 294 303 306 312 321 324 322 320 314 308 303 298 293 289 286 283
211 207 211 221 229 228 224 222 223 226 228 230 231 231 232 234 237 239 243 247 251 254 254 256 259 262 264 266 268 270 271 270 269 269 270 271 272 271 270 271 273 275 278 281 283 284 285 285 285 284 286 289 294 300 301 300 302 302 301 299 296 293 293 292 287 275 266 268 279 293 303 307 311 317 323 325 320 317 317 312 305 301 299 295 288
213 210 208 212 224 231 229 224 223 225 227 229 229 229 230 232 234 238 242 247 252 255 256 258 261 265 267 268 269 270 270 269 269 269 270 272 273 272 271 272 273 275 277 279 280 283 286 285 283 281 282 288 295 300 299 296 298 302 304 302 297 296 296 294 288 280 274 275 283 292 299 303 305 309 315 318 315 316 324 324 320 318 317 310 303
216 216 212 209 216 227 230 228 225 225 227 229 230 230 230 232 234 238 242 247 252 256 258 260 262 266 268 269 270 270 270 270 272 271 271 271 273 273 271 272 274 275 276 278 280 284 285 284 283 281 280 285 291 294 295 296 297 300 304 307 308 308 306 300 294 290 286 285 287 289 291 293 296 302 309 313 313 317 328 329 325 326 326 318 310
214 216 214 212 216 223 228 229 226 225 226 228 230 232 233 234 236 239 243 247 252 256 258 261 264 269 272 272 272 271 270 270 271 270 270 270 271 272 272 273 275 276 278 280 281 283 285 283 282 279 276 279 287 289 290 290 291 296 305 312 312 306 299 296 299 304 306 302 294 290 287 286 293 303 309 312 315 318 320 320 320 325 327 320 313
213 214 215 217 220 222 224 227 227 225 226 228 230 233 234 236 238 241 245 248 251 255 257 260 266 271 272 272 271 271 271 271 270 268 269 272 273 275 274 275 277 278 280 282 283 284 285 282 280 279 278 282 285 284 282 278 274 278 289 299 299 294 287 289 296 303 303 297 292 289 287 290 300 308 308 309 314 317 317 316 318 323 328 325 321
217 218 219 222 224 222 221 223 224 224 226 228 230 233 235 238 240 242 244 245 247 250 253 256 261 265 267 269 271 271 272 273 270 267 267 270 274 275 275 276 277 278 281 283 283 281 280 281 283 283 284 287 287 282 279 277 273 271 272 272 275 282 284 288 296 298 287 282 284 287 288 296 305 312 315 318 322 324 322 320 320 322 327 326 319
220 223 226 226 225 223 220 220 220 220 223 226 229 233 235 237 240 241 240 239 239 239 239 240 244 254 263 267 269 271 272 271 269 266 265 267 270 272 272 272 274 276 279 281 280 278 278 281 285 285 285 291 292 284 280 282 286 291 289 276 265 267 275 280 286 290 285 281 283 286 289 298 305 312 320 325 322 318 318 320 320 318 316 311 303
223 228 231 231 230 226 221 216 215 215 216 217 221 225 231 235 237 237 234 232 232 230 227 229 240 258 267 266 267 269 269 268 267 265 265 267 269 270 269 268 269 271 274 275 276 276 276 278 283 283 283 290 288 279 276 280 288 295 294 284 277 274 273 265 263 275 282 284 289 297 301 305 309 314 319 318 315 314 314 315 315 312 305 299 295
221 225 228 228 230 230 223 218 218 215 205 194 190 191 203 224 232 232 229 227 227 229 231 240 255 268 267 260 260 265 267 269 270 269 270 271 270 270 268 267 266 265 268 272 275 274 272 275 282 283 279 278 274 271 276 281 285 290 287 287 290 285 273 267 272 281 289 291 296 302 307 309 310 315 317 315 316 316 312 309 307 301 295 295 294
214 216 213 210 214 220 218 217 223 226 212 191 185 185 192 206 219 227 230 228 226 226 230 240 258 277 279 268 262 265 269 272 274 274 275 274 272 271 269 268 266 263 266 272 274 272 270 267 266 265 263 261 258 266 285 288 291 298 296 294 298 299 298 297 298 300 296 293 292 293 300 310 314 316 317 316 315 312 308 303 299 296 296 298 297
209 210 208 205 207 211 211 212 216 220 216 208 200 195 196 199 199 208 230 234 228 218 211 212 227 260 279 276 270 270 270 273 275 276 276 275 274 273 270 269 267 263 264 265 258 256 264 260 246 242 243 241 234 237 275 275 279 303 312 315 310 310 310 304 300 300 294 291 302 312 316 319 317 315 315 312 309 308 307 302 297 298 300 300 300
208 210 208 205 207 211 211 209 208 208 207 208 210 209 207 206 204 209 230 243 240 216 208 213 223 240 253 260 265 269 269 271 273 274 275 276 277 277 276 274 267 257 250 252 261 269 272 254 220 207 211 211 193 163 185 226 238 4 27 54 94 97 43 334 320 324 316 315 335 339 328 320 316 313 311 308 305 303 301 300 301 304 305 302 301
198 204 204 206 212 214 210 204 201 204 206 204 206 209 211 215 215 214 222 233 233 212 203 210 226 238 242 248 256 262 265 269 272 274 276 279 280 282 281 268 249 247 245 242 251 255 214 185 183 174 164 160 158 155 162 166 121 83 69 78 85 71 53 32 359 352 357 1 358 344 330 327 326 323 319 313 310 304 298 299 305 303 296 289 291
168 174 175 184 194 200 203 201 196 194 194 188 189 194 196 197 196 193 200 209 210 203 201 205 216 223 228 238 247 256 264 271 276 278 280 282 283 284 275 239 230 249 242 200 172 151 140 144 151 146 134 130 127 113 98 93 92 86 80 80 70 54 45 38 24 18 28 26 14 7 5 4 5 9 7 355 345 336 315 305 310 311 305 302 304
106 114 122 132 146 164 181 185 176 169 168 165 165 170 168 164 163 168 177 183 179 176 178 177 173 176 195 220 240 258 270 280 285 285 285 286 288 288 262 239 235 225 202 171 149 138 131 126 120 117 115 111 105 96 89 85 87 87 83 79 71 60 57 57 46 44 55 54 48 47 44 39 38 39 37 31 27 25 20 8 354 348 347 350 347
95 101 105 110 118 131 145 149 145 143 144 144 143 141 139 140 143 147 151 150 144 143 149 156 154 141 139 161 264 305 314 318 305 296 294 295 295 295 267 231 213 190 166 143 127 122 118 113 109 107 105 101 95 90 87 84 83 81 77 76 77 75 75 76 71 71 73 69 66 64 59 53 49 46 40 36 33 31 30 30 26 21 19 21 19
94 95 95 97 103 111 115 119 122 124 128 133 130 124 121 122 121 119 119 118 117 117 119 123 121 104 93 87 75 52 35 12 341 317 307 300 296 294 261 206 184 163 138 118 110 108 107 105 103 100 97 94 90 87 84 81 78 77 77 82 88 89 89 87 84 81 76 70 65 60 55 52 50 46 41 37 34 34 36 38 38 36 35 35 36
93 91 91 92 97 102 106 108 110 111 112 115 113 107 103 102 102 105 111 114 114 113 112 112 109 99 89 88 84 80 77 69 55 36 5 350 97 199 189 165 152 137 122 111 106 106 105 103 100 96 92 89 87 85 83 80 79 80 82 87 90 91 90 87 81 76 71 67 62 56 51 49 48 46 44 39 34 34 38 40 41 40 41 41 42
90 87 86 89 93 96 100 102 103 103 101 100 98 96 95 97 101 106 112 116 117 114 113 114 111 105 100 100 98 93 91 90 88 85 84 95 113 127 137 137 131 124 117 112 110 109 107 103 100 97 93 92 91 90 87 85 84 84 84 85 86 86 84 79 75 71 66 63 59 55 52 51 50 48 48 45 40 38 38 39 40 41 44 47 47
86 84 83 85 89 91 93 96 97 97 97 97 96 96 99 103 105 108 111 113 113 111 111 112 112 109 107 105 103 100 98 97 96 97 99 102 110 119 124 124 122 119 114 111 110 110 107 105 103 99 96 94 93 90 87 85 84 83 82 80 79 77 76 73 71 68 64 61 58 57 56 55 55 55 54 51 49 46 43 41 41 41 45 50 52
84 84 84 85 88 91 92 93 95 96 98 100 100 101 104 105 105 106 106 105 104 105 105 105 105 104 102 100 98 98 99 98 96 100 107 108 108 111 115 117 116 113 110 109 110 109 107 104 101 98 95 93 90 87 85 83 82 80 79 76 74 71 70 68 67 66 64 62 60 59 59 59 58 57 54 51 49 47 44 42 41 41 44 50 55
88 88 89 89 90 91 91 93 96 96 97 100 102 104 106 106 105 103 103 102 101 100 100 99 98 96 95 95 95 96 98 100 99 101 108 111 111 112 113 113 113 111 110 109 109 106 104 102 99 96 94 91 88 86 84 82 79 76 75 74 72 71 69 67 66 65 64 62 60 59 59 58 56 52 49 48 47 45 43 42 43 43 43 49 54
92 90 90 90 88 89 90 92 93 94 94 95 96 96 98 99 98 95 96 97 98 97 96 94 92 92 94 96 97 97 99 103 104 104 107 110 112 114 114 114 114 114 113 111 110 108 106 103 99 96 92 88 85 84 81 79 78 75 73 72 70 68 66 64 62 61 59 58 57 56 54 52 51 49 48 47 46 44 43 45 49 49 48 51 52
91 88 88 87 85 86 89 90 91 92 91 90 88 85 86 90 91 91 90 91 91 91 90 88 86 89 94 95 96 98 101 104 106 107 110 112 114 114 115 115 117 117 116 115 114 110 105 99 94 90 87 85 83 81 80 79 77 74 71 69 65 62 59 57 56 54 52 51 51 50 48 47 45 44 44 44 44 44 44 46 50 52 52 54 53
87 85 85 85 85 86 87 88 89 90 89 88 86 83 81 83 87 89 89 87 84 83 81 81 82 85 88 89 91 95 100 104 109 112 114 116 116 115 116 118 119 120 121 119 113 105 99 93 89 87 85 83 81 81 79 77 75 72 69 66 62 59 57 56 55 53 51 51 51 49 46 44 41 38 39 40 41 42 44 47 50 52 54 55 51
85 83 83 83 84 85 86 86 87 87 87 88 89 88 86 85 86 89 88 85 81 79 78 79 81 82 83 84 85 88 93 100 109 117 120 119 118 119 121 123 123 124 124 115 104 99 96 93 89 87 87 86 84 83 81 79 77 74 71 67 64 60 58 57 54 53 52 52 51 48 45 42 39 36 35 36 36 38 42 45 48 52 56 56 51
83 81 81 81 81 81 81 82 84 85 86 87 88 90 91 90 88 88 88 85 82 80 79 80 81 82 82 82 83 86 89 94 102 113 120 120 120 122 124 126 126 127 121 106 100 100 100 98 95 94 93 92 91 89 86 83 80 76 72 70 66 61 59 57 52 50 50 48 45 42 40 37 35 32 31 31 34 37 40 44 47 51 55 56 52
80 80 80 80 79 78 77 76 76 79 83 86 89 92 94 95 94 92 90 88 86 84 83 83 84 83 83 83 84 85 87 89 93 99 108 114 118 121 122 124 123 119 108 102 104 105 105 102 101 99 97 95 93 90 86 82 79 75 72 70 67 63 59 55 51 49 49 46 43 41 38 35 33 31 30 31 35 40 43 46 48 51 54 54 51
79 80 80 80 81 81 79 78 77 76 78 83 90 95 97 99 102 102 99 94 90 87 85 85 85 85 85 84 85 86 88 89 90 92 97 103 109 114 117 116 112 103 98 101 106 109 108 106 104 102 100 97 95 91 88 85 82 78 75 72 68 64 59 52 49 48 45 41 40 39 36 33 32 33 36 39 43 48 50 49 49 51 53 52 49
84 86 85 83 81 81 83 87 89 89 88 87 90 96 100 105 109 111 110 105 98 92 88 88 89 89 89 87 87 89 92 93 94 95 97 100 103 108 111 108 104 100 99 102 107 110 110 110 109 107 104 101 98 95 92 88 83 79 76 72 66 59 53 47 45 42 38 36 36 34 31 30 30 32 38 45 51 55 56 52 48 48 50 50 47
86 88 87 82 79 80 85 92 96 104 111 109 102 98 99 105 114 119 121 119 113 106 99 94 94 98 99 98 97 98 100 102 102 102 102 102 100 100 104 107 108 108 108 109 111 113 114 113 112 110 107 104 100 96 91 87 83 77 71 65 58 51 45 41 39 35 34 34 34 30 28 28 27 29 38 50 57 61 61 59 53 47 46 48 46
91 92 91 89 87 89 95 100 101 104 114 124 127 121 110 107 114 121 126 128 126 120 112 104 100 102 107 111 114 114 114 115 112 107 105 106 100 95 102 111 116 116 117 116 116 116 116 115 114 111 108 105 102 98 93 87 81 73 65 57 51 46 41 38 34 32 32 34 34 32 32 32 30 32 42 58 65 66 66 64 62 57 51 49 47
93 97 102 106 108 109 109 109 107 103 102 109 123 134 136 129 123 122 127 132 133 131 126 119 110 104 105 115 128 132 130 128 122 113 111 111 105 101 107 116 119 120 122 122 120 118 118 118 116 113 110 107 103 98 92 84 76 68 59 52 47 43 39 36 33 32 32 34 33 32 33 37 39 43 54 66 71 72 71 67 63 60 56 51 48
100 111 120 123 122 120 119 116 112 107 103 98 100 115 133 143 144 140 133 130 133 137 139 137 127 113 107 114 127 138 143 143 135 122 121 120 113 108 112 118 122 125 126 125 123 121 120 120 119 115 111 107 101 94 87 81 73 64 55 48 43 39 35 33 33 33 34 35 34 33 37 46 52 54 62 72 75 73 70 67 63 61 58 52 49
115 119 123 123 121 120 121 120 116 111 107 103 101 104 114 128 144 154 154 148 142 140 141 144 141 131 120 117 120 123 134 144 145 144 143 138 132 127 123 123 126 129 129 128 128 126 123 121 120 117 112 106 99 92 86 78 69 59 50 44 40 37 32 30 31 35 38 38 37 36 43 56 63 65 70 76 75 70 67 65 62 60 57 54 51
118 116 114 113 113 115 116 115 115 114 112 111 110 108 109 114 124 136 148 159 162 151 141 140 142 140 138 134 129 125 121 115 132 206 197 174 162 155 147 139 136 135 135 133 131 128 125 123 120 117 112 105 97 92 85 74 64 55 46 42 41 38 33 30 33 40 44 43 42 43 51 62 69 72 74 75 71 66 64 63 61 59 57 55 53
127 120 113 109 108 108 108 109 111 114 116 116 116 114 113 114 116 117 120 128 139 145 141 136 136 140 142 139 133 126 98 59 43 325 232 205 190 179 168 158 151 145 139 136 133 130 128 126 122 118 113 107 101 94 84 72 60 51 46 45 45 42 38 37 42 50 53 52 52 55 60 66 69 70 71 69 64 63 64 65 64 62 60 56 53
138 128 118 112 107 105 109 114 117 117 117 116 116 115 114 112 111 109 107 108 112 121 127 126 127 135 140 137 127 111 85 58 37 12 309 232 207 194 182 173 163 152 142 137 135 134 132 128 125 122 116 111 104 92 80 68 57 50 49 50 49 47 46 48 55 62 64 64 63 64 65 66 67 68 69 68 66 68 71 71 68 63 58 54 52
148 134 122 116 113 113 118 121 118 116 115 113 110 109 107 106 105 104 104 104 105 108 111 112 115 122 126 122 114 108 100 79 40 1 322 261 216 197 188 181 165 150 140 137 139 140 135 128 126 124 119 110 97 83 72 63 54 51 53 54 53 54 57 61 70 78 77 71 67 67 69 69 71 72 71 70 70 71 73 72 67 61 57 53 51
153 141 132 127 126 126 126 123 119 117 115 110 105 99 96 96 96 95 95 96 96 97 97 98 99 100 101 99 100 101 95 80 32 327 303 269 222 199 188 174 155 144 140 141 147 146 135 123 122 122 113 101 88 77 68 60 55 54 55 54 55 60 65 72 81 86 78 63 56 59 63 64 67 69 68 67 68 71 72 69 63 59 56 54 52
152 145 139 136 134 133 131 128 125 122 115 108 102 97 92 89 88 87 87 87 87 87 87 86 86 86 85 84 84 82 74 54 339 308 298 250 204 189 175 159 147 144 145 149 152 149 134 121 119 116 106 96 88 78 67 60 57 55 54 55 60 65 70 81 91 87 71 56 57 61 61 61 64 67 70 73 75 75 71 66 61 57 54 52 51
150 146 142 139 137 135 134 131 127 122 116 110 105 101 96 91 87 83 81 79 79 79 80 79 78 76 75 73 70 66 63 50 360 319 188 173 172 167 161 155 151 151 152 153 153 146 133 124 121 113 104 99 92 79 67 61 56 53 52 55 59 61 67 85 96 86 70 66 66 62 59 62 69 77 80 78 74 68 63 61 60 56 53 52 49
150 146 145 142 139 137 135 131 126 121 117 112 109 105 101 98 95 92 90 89 88 84 83 82 79 76 76 76 73 72 78 87 98 109 126 142 149 151 151 150 150 154 155 153 149 140 132 129 125 115 106 99 87 75 67 60 54 51 51 52 53 53 64 86 94 83 75 72 66 58 58 65 76 82 80 72 65 59 57 59 59 55 51 48 45
150 148 146 143 139 137 135 132 127 123 120 116 113 111 109 106 104 102 101 101 99 94 88 85 82 80 80 81 82 84 90 99 106 110 116 124 132 138 142 145 151 156 155 151 145 139 137 138 131 118 106 95 84 75 66 58 51 48 45 43 43 50 62 77 84 80 72 69 66 64 63 67 74 77 72 66 62 60 58 56 54 51 49 47 45
149 148 145 142 139 137 136 133 128 124 123 121 118 116 114 109 105 103 101 100 98 95 92 90 90 92 93 93 92 90 90 92 94 98 103 110 116 122 129 138 147 151 150 150 150 149 148 148 140 122 106 94 83 73 61 52 46 40 34 32 41 55 61 61 66 73 72 71 75 70 59 58 69 75 68 59 53 51 52 52 53 53 51 49 46
149 147 144 142 140 138 137 134 130 127 124 120 116 114 112 109 106 105 106 106 104 103 102 100 100 101 101 98 94 91 90 91 92 93 94 98 104 112 119 129 139 146 153 164 167 160 155 150 139 122 103 84 69 58 51 44 37 30 28 35 51 64 64 60 63 67 63 63 69 63 51 55 71 78 68 53 44 43 49 56 60 57 52 44 38